Regional Weather Roundup
Issued by NWS Green Bay, WI

Home | Current Version | Previous Version | Graphics & Text | Print | Product List | Glossary Off
Versions: 1 2 3 4 5 6 7 8 9 10 11 12 13 14 15 16 17 18 19 20 21 22 23 24 25 26 27 28 29 30 31 32 33 34 35 36 37 38 39 40 41 42 43 44 45 46 47 48 49 50

000
ASUS43 KGRB 292310
RWRGRB

NORTH-CENTRAL AND NORTHEAST WISCONSIN REGIONAL WEATHER ROUNDUP
NATIONAL WEATHER SERVICE GREEN BAY WI
500 PM CST THU JAN 29 2015

WIZ005-009-010>012-018-019-300000-
NORTH CENTRAL WISCONSIN

CITY           SKY/WX    TMP DP  RH WIND       PRES   REMARKS
IRONWOOD       CLOUDY    19  12  73 NW15G22   30.19R WCI   5
MANITOWISH WTR LGT SNOW  19  13  80 N9G21     30.15R WCI   7
ARBOR VITAE    LGT SNOW  22  15  76 N13G24    30.15R WCI  10
EAGLE RIVER    LGT SNOW  19  12  76 N17G28    30.13R WCI   3
LAND O LAKES   LGT SNOW  19  14  81 NW10G16   30.13R WCI   7
RHINELANDER    FLURRIES  20  12  71 NW15G22   30.13R WCI   6
PHILLIPS       CLOUDY    22  13  68 NW15G22   30.17R WCI   8
ANTIGO         CLOUDY    23  16  75 N22G31    30.10R WCI   7
TOMAHAWK       FLURRIES  23  15  71 NW7G18    30.14R
MERRILL        CLOUDY    26  15  64 N15G21    30.13R
$$

WIZ013-073-300000-
NORTHEAST WISCONSIN

CITY           SKY/WX    TMP DP  RH WIND       PRES   REMARKS
IRON MOUNTAIN  CLOUDY    20  11  68 NW16G29   30.10R WCI   6
MARINETTE      CLOUDY    28  16  59 N18G30    30.08R
OCONTO         CLOUDY    29  18  62 N15       30.10R
$$

WIZ017-030-035>037-045-300000-
CENTRAL WISCONSIN

CITY           SKY/WX    TMP DP  RH WIND       PRES   REMARKS
MEDFORD        CLOUDY    25  16  69 NW23G30   30.15R HAZE    WCI  10
WAUSAU         CLOUDY    27  15  61 NW17G25   30.11R
MOSINEE        CLOUDY    28  19  69 NW20G28   30.13R
MARSHFIELD     CLOUDY    28  17  63 NW23G29   30.15R
WISC RAPIDS    CLOUDY    30  18  60 NW23G31   30.16R
STEVENS POINT  CLOUDY    29  16  57 NW13G20   30.13R
WAUPACA        CLOUDY    34  18  52 NW16G26   30.11R
SHAWANO        CLOUDY    32  17  53 N21G29    30.11R
CLINTONVILLE   CLOUDY    30  18  59 N18G25    30.11R
$$

WIZ038-039-048-051-300000-
FOX VALLEY

CITY           SKY/WX    TMP DP  RH WIND       PRES   REMARKS
NWS GREEN BAY  CLOUDY    31  18  58 N16       30.09R
APPLETON       MOCLDY    30  18  59 NW23G32   30.08R
OSHKOSH        CLOUDY    33  19  56 NW13      30.09R
FOND DU LAC    CLOUDY    34  20  56 N15       30.08R
$$

WIZ022-050-052-300000-
EAST CENTRAL WISCONSIN

CITY           SKY/WX    TMP DP  RH WIND       PRES   REMARKS
STURGEON BAY   CLOUDY    28  18  64 N16G25    30.08R
MANITOWOC      CLOUDY    33  20  58 N20G30    30.07R
SHEBOYGAN      CLOUDY    34  20  56 NW16G30   30.06R
$$

LMZ563-521-522-541>543-300000-
LAKESHORE

STATION/POSITION TIME  TEMP    WIND        PRES    VSBY  WAVE
                       AIR SEA DIR/SP/G                  HT/PER
                 (UTC) (F)     (DEG/KT/KT) (MB)    (MI)  (FT/S)
SHEBOYGAN LKSHOR 2300   34     330/ 18/ 22 1019.2R
KEWAUNEE LKSHORE 2300   31     350/ 12/ 26 1016.8R
NORTHPORT PIER   2300   26     330/ 27/ 35 1017.9R
SISTER BAY LKSHO 2200   29     340/ 27/ 32   N/A
CHAMBERS ISLAND  2300   27     310/ 20/ 27 1017.9R
MENOMINEE LKSHOR 2300   28     320/ 26     1018.7R
$$



USA.gov is the U.S. government's official web portal to all federal, state and local government web resources and services.